Location: Los Gatos B&B
(42.6926°N, 77.0646°W)
Time: 04:59:11
(UTC-05:00)

Amateur Radio Satellites - All Passes

Search period start: 11 December 2016 04:29
Search period end: 12 December 2016 04:29
Location: Los Gatos B&B, 42.6926°N, 77.0646°W

Satellite Date Start Highest point End Downlink Frequencies (MHz)
Time Altitude Azimuth
KKS-1 11 Dec 04:29:32 04:33:08 24° 265° (W) 04:36:47 437.445
Cosmos 2491 11 Dec 04:36:31 04:40:32 14° 74° (ENE) 04:44:34 435.465 / 435.565
GOMX 1 11 Dec 04:48:35 04:52:19 18° 89° (E) 04:56:00 467.674
CUBESAT XI-V 11 Dec 04:57:27 05:01:41 36° 263° (W) 05:05:57 437.345
BEESAT 2 11 Dec 05:03:15 05:06:57 37° 310° (NW) 05:10:42 435.950
RS-15 11 Dec 05:03:48 05:12:46 27° 100° (E) 05:22:00 29.354- 29.394
ITAMSAT 1 11 Dec 05:04:33 05:07:19 15° 301° (WNW) 05:10:05 435.822/435.867
Cosmos 2504 11 Dec 05:26:42 05:34:28 34° 68° (ENE) 05:41:47 435.465 / 435.565
HORYU 2 11 Dec 05:32:33 05:36:59 68° 102° (ESE) 05:41:22 437.375
CUTE-I 11 Dec 05:38:29 05:42:48 25° 94° (E) 05:47:05 437.470
BRITE-PL 11 Dec 05:40:18 05:45:51 74° 286° (WNW) 05:51:32 437.365/2234.400
NOAA 15 11 Dec 05:42:29 05:47:04 29° 96° (E) 05:51:38 137.62
YUBILEINY 11 Dec 05:56:38 06:05:32 88° 264° (W) 06:14:23 435.215
STRAND 1 11 Dec 05:58:44 06:03:28 39° 68° (ENE) 06:08:12 437.568
Cubesat XI-IV 11 Dec 06:05:49 06:10:53 43° 99° (E) 06:15:54 437.490
DOVE 4 11 Dec 06:07:06 06:12:04 40° 97° (E) 06:16:48 437.250
AIST 1 11 Dec 06:17:10 06:21:36 83° 81° (E) 06:26:00
AO-7 11 Dec 06:18:16 06:23:53 20° 311° (NW) 06:29:30 29.400- 29.500
GOMX 1 11 Dec 06:25:20 06:30:47 63° 287° (WNW) 06:36:09 467.674
Cosmos 2491 11 Dec 06:27:02 06:35:46 75° 94° (E) 06:44:29 435.465 / 435.565
HO-68 11 Dec 06:33:03 06:37:32 17° 89° (E) 06:42:00 435.675
NOAA 18 11 Dec 06:35:10 06:40:32 49° 100° (E) 06:45:50 137.9125
LilacSat-2 11 Dec 06:35:44 06:39:30 72° 284° (WNW) 06:43:14 437.200
AIST 2 11 Dec 06:42:29 06:46:31 62° 120° (ESE) 06:50:39 435.215
CINEMA 3 11 Dec 06:44:41 06:48:23 23° 92° (E) 06:51:56 145.822/145.860
CUTE 1.7 + AOD 2 11 Dec 06:50:54 06:53:15 14° 91° (E) 06:55:34 437.475
CANX-2 11 Dec 07:09:09 07:12:44 26° 95° (E) 07:16:19 2200.000
HORYU 2 11 Dec 07:10:55 07:12:57 13° 299° (WNW) 07:15:01 437.375
RS-15 11 Dec 07:11:49 07:23:39 87° 303° (WNW) 07:36:04 29.354- 29.394
CUTE-I 11 Dec 07:17:59 07:23:00 44° 291° (WNW) 07:28:01 437.470
Cosmos 2504 11 Dec 07:19:50 07:28:15 55° 270° (W) 07:36:07 435.465 / 435.565
BRITE-PL 11 Dec 07:21:28 07:23:25 12° 302° (WNW) 07:25:22 437.365/2234.400
NOAA 15 11 Dec 07:22:03 07:26:53 37° 293° (WNW) 07:31:42 137.62
SEEDS 11 Dec 07:22:39 07:25:56 22° 94° (E) 07:29:12 437.485
COMPASS 1 11 Dec 07:22:43 07:25:03 14° 91° (E) 07:27:22 437.405
STRAND 1 11 Dec 07:38:28 07:42:44 26° 265° (W) 07:47:01 437.568
DOVE 4 11 Dec 07:45:09 07:49:30 27° 294° (WNW) 07:53:43 437.250
Cubesat XI-IV 11 Dec 07:46:21 07:50:44 26° 296° (WNW) 07:55:04 437.490
YUBILEINY 11 Dec 07:55:34 08:00:59 18° 284° (WNW) 08:06:26 435.215
CUBEBUG 2 11 Dec 08:00:09 08:04:04 33° 96° (E) 08:07:52 437.445
TIGRISAT 11 Dec 08:03:43 08:05:14 11° 60° (ENE) 08:06:44 435.000
ANTELSAT 11 Dec 08:06:07 08:08:11 13° 61° (ENE) 08:10:15 437.575/2403.000
NOAA 18 11 Dec 08:16:28 08:20:52 25° 298° (WNW) 08:25:15 137.9125
HO-68 11 Dec 08:18:51 08:26:07 87° 286° (WNW) 08:33:19 435.675
AAUSAT CUBESAT 2 11 Dec 08:20:31 08:24:35 49° 99° (E) 08:28:37 437.432
CINEMA 3 11 Dec 08:21:17 08:25:38 37° 291° (WNW) 08:29:46 145.822/145.860
AIST 2 11 Dec 08:22:35 08:25:24 17° 319° (NW) 08:28:15 435.215
CUTE 1.7 + AOD 2 11 Dec 08:25:16 08:29:22 50° 287° (WNW) 08:33:27 437.475
PRISM 11 Dec 08:25:41 08:29:44 80° 75° (ENE) 08:33:51 437.425
Cosmos 2491 11 Dec 08:26:36 08:33:30 25° 295° (WNW) 08:40:25 435.465 / 435.565
AO-85 11 Dec 08:28:32 08:31:48 23° 45° (NE) 08:34:58 145.980
UWE-3 11 Dec 08:30:08 08:34:14 44° 99° (E) 08:38:12 435.000/436.395/437.385
CANX-2 11 Dec 08:44:57 08:48:32 27° 291° (WNW) 08:52:05 2200.000
JAS-2 11 Dec 08:49:12 08:50:28 11° 57° (ENE) 08:51:42 435.910
COMPASS 1 11 Dec 08:56:50 09:00:52 48° 287° (WNW) 09:04:53 437.405
ZACube-1 11 Dec 08:57:53 09:02:01 55° 100° (E) 09:06:05 437.345
SEEDS 11 Dec 08:57:55 09:01:39 32° 290° (WNW) 09:05:25 437.485
FUNcube-1 11 Dec 09:02:08 09:06:16 57° 100° (E) 09:10:19 145.935
CUSAT 1 11 Dec 09:05:58 09:08:42 48° 282° (WNW) 09:11:15 437.405
DANDE 11 Dec 09:06:58 09:10:19 27° 97° (E) 09:13:04 436.750
UNISAT 6 11 Dec 09:08:37 09:13:08 53° 73° (ENE) 09:17:38 437.425
PCSat 11 Dec 09:10:46 09:14:27 19° 105° (ESE) 09:18:09 145.827
Oscar 11 11 Dec 09:25:02 09:29:22 83° 284° (WNW) 09:33:40 145.826/435.025
RS-15 11 Dec 09:27:21 09:38:06 35° 331° (NNW) 09:49:10 29.354- 29.394
HUMSAT D 11 Dec 09:34:26 09:37:41 23° 94° (E) 09:40:56 437.325/437.525
TIGRISAT 11 Dec 09:36:34 09:41:15 85° 260° (W) 09:45:53 435.000
CUBEBUG 2 11 Dec 09:37:08 09:40:30 22° 294° (WNW) 09:43:47 437.445
ANTELSAT 11 Dec 09:39:38 09:44:18 75° 257° (WSW) 09:48:55 437.575/2403.000
AAUSAT CUBESAT 2 11 Dec 09:57:13 09:59:39 15° 296° (WNW) 10:02:05 437.432
Cosmos 2499 11 Dec 10:01:48 10:09:03 30° 67° (ENE) 10:15:49 435.465 / 435.565
DELFI C3 11 Dec 10:02:48 10:06:49 83° 280° (W) 10:10:48 145.870
NANOSAT C BR1 11 Dec 10:06:50 10:10:12 23° 67° (ENE) 10:13:33 145.865
UWE-3 11 Dec 10:07:36 10:10:19 17° 296° (WNW) 10:13:00 435.000/436.395/437.385
HO-68 11 Dec 10:08:09 10:12:51 19° 307° (NW) 10:17:32 435.675
AO-85 11 Dec 10:08:40 10:12:16 34° 244° (WSW) 10:15:47 145.980
QB50P2 11 Dec 10:17:58 10:21:50 34° 70° (ENE) 10:25:42 145.880/145.840
POLYITAN 1 11 Dec 10:18:23 10:22:12 32° 69° (ENE) 10:26:01 437.675
DUCHIFAT 1 11 Dec 10:25:23 10:29:11 32° 69° (ENE) 10:32:59 145.980
JAS-2 11 Dec 10:28:37 10:34:46 72° 74° (ENE) 10:40:17 435.910
QB50P1 11 Dec 10:29:11 10:33:13 41° 71° (ENE) 10:37:15 145.935-145.965
GONETS M04 11 Dec 10:35:08 10:43:23 44° 73° (ENE) 10:51:36
ZACube-1 11 Dec 10:35:42 10:37:50 14° 297° (WNW) 10:39:57 437.345
FUNcube-1 11 Dec 10:39:59 10:42:01 13° 297° (WNW) 10:44:03 145.935
CUBEBUG 1 11 Dec 10:41:11 10:42:12 11° 89° (E) 10:43:12 437.445
UNISAT 6 11 Dec 10:47:13 10:50:08 16° 269° (W) 10:53:01 437.425
ESTCUBE 1 11 Dec 10:47:28 10:50:59 22° 94° (E) 10:54:28 437.505/2401.250
POPSAT HIP 1 11 Dec 10:51:03 10:55:19 72° 75° (ENE) 10:59:36 437.405
DANDE 11 Dec 10:51:04 10:52:55 13° 285° (WNW) 10:54:35 436.750
PCSat 11 Dec 10:51:57 10:57:19 63° 303° (WNW) 11:02:43 145.827
BUGSAT 1 11 Dec 10:58:06 11:01:45 29° 69° (ENE) 11:05:26 437.445
BEESAT 3 11 Dec 11:01:12 11:03:47 16° 41° (NE) 11:06:21 437.485
VELOX 1 11 Dec 11:06:20 11:08:35 14° 90° (E) 11:10:50 145.980
HUMSAT D 11 Dec 11:09:46 11:13:18 29° 291° (WNW) 11:16:50 437.325/437.525
Gurwin Techsat 1B 11 Dec 11:30:29 11:31:39 11° 55° (NE) 11:32:48 435.225
NANOSAT C BR1 11 Dec 11:41:53 11:45:44 33° 263° (W) 11:49:36 145.865
BEESAT 2 11 Dec 11:42:56 11:45:55 19° 43° (NE) 11:48:54 435.950
RS-15 11 Dec 11:45:56 11:55:41 26° 6° (N) 12:05:26 29.354- 29.394
QB50P2 11 Dec 11:54:21 11:57:41 22° 266° (W) 12:01:01 145.880/145.840
Cosmos 2499 11 Dec 11:54:28 12:02:45 60° 269° (W) 12:10:23 435.465 / 435.565
POLYITAN 1 11 Dec 11:54:36 11:58:01 23° 266° (W) 12:01:27 437.675
DUCHIFAT 1 11 Dec 12:01:32 12:04:54 22° 266° (W) 12:08:15 145.980
AISAT 11 Dec 12:04:28 12:08:55 60° 101° (E) 12:13:19 437.250
QB50P1 11 Dec 12:06:15 12:09:09 18° 267° (W) 12:12:05 145.935-145.965
CUBEBUG 1 11 Dec 12:14:31 12:18:59 74° 284° (WNW) 12:23:23 437.445
JAS-2 11 Dec 12:16:38 12:20:15 16° 268° (W) 12:23:42 435.910
Oscar 19 11 Dec 12:21:22 12:26:21 55° 71° (ENE) 12:31:24 437.125/150
ESTCUBE 1 11 Dec 12:23:42 12:27:53 37° 290° (WNW) 12:32:03 437.505/2401.250
50 SAT 11 Dec 12:26:50 12:30:25 86° 280° (W) 12:33:59 437.505
SPROUT 11 Dec 12:29:17 12:33:35 73° 102° (ESE) 12:37:50 437.525
UKube-1 11 Dec 12:29:27 12:33:33 40° 99° (E) 12:37:38 .
POPSAT HIP 1 11 Dec 12:30:55 12:31:34 10° 271° (W) 12:32:12 437.405
GONETS M04 11 Dec 12:32:08 12:40:08 43° 273° (W) 12:48:09
BUGSAT 1 11 Dec 12:33:33 12:37:05 25° 265° (W) 12:40:39 437.445
DX 1 11 Dec 12:34:08 12:38:30 62° 102° (ESE) 12:42:50 434.975-435.025
BEESAT 3 11 Dec 12:37:50 12:41:48 63° 239° (WSW) 12:45:43 437.485
PCSat 11 Dec 12:39:10 12:41:50 14° 324° (NW) 12:44:29 145.827
VELOX 1 11 Dec 12:41:01 12:45:25 59° 287° (WNW) 12:49:47 145.980
ITAMSAT 1 11 Dec 13:04:49 13:08:16 18° 61° (ENE) 13:11:45 435.822/435.867
Gurwin Techsat 1B 11 Dec 13:05:21 13:10:39 73° 74° (ENE) 13:15:58 435.225
BEESAT 2 11 Dec 13:20:04 13:23:59 49° 241° (WSW) 13:27:52 435.950
TISAT 1 11 Dec 13:29:39 13:33:47 52° 100° (E) 13:37:52 437.305
AO-7 11 Dec 13:32:11 13:39:29 36° 58° (ENE) 13:46:49 29.400- 29.500
ITUPSAT 1 11 Dec 13:40:23 13:42:44 14° 90° (E) 13:45:06 437.325
AISAT 11 Dec 13:42:21 13:44:52 15° 298° (WNW) 13:47:23 437.250
M-CUBED/EXP-1 PRIME 11 Dec 13:47:21 13:48:45 11° 93° (E) 13:50:08 437.505
RS-15 11 Dec 14:00:47 14:12:34 45° 39° (NE) 14:24:02 29.354- 29.394
ISS 11 Dec 14:01:38 14:04:44 41° 139° (SE) 14:07:51 145.825
Oscar 19 11 Dec 14:02:29 14:06:01 19° 268° (W) 14:09:34 437.125/150
UKube-1 11 Dec 14:06:09 14:09:18 20° 295° (WNW) 14:12:27 .
SPROUT 11 Dec 14:07:25 14:08:54 12° 299° (WNW) 14:10:23 437.525
DX 1 11 Dec 14:11:52 14:14:10 14° 299° (WNW) 14:16:29 434.975-435.025
SWISSCUBE 11 Dec 14:41:02 14:45:47 64° 102° (ESE) 14:50:29 437.505
ITAMSAT 1 11 Dec 14:42:04 14:47:14 63° 258° (WSW) 14:52:25 435.822/435.867
BEESAT 11 Dec 14:44:25 14:49:09 62° 101° (ESE) 14:53:51 436.000
O/OREOS (USA 219) 11 Dec 14:47:16 14:51:46 62° 109° (ESE) 14:56:15 437.305
Gurwin Techsat 1B 11 Dec 14:48:15 14:51:08 15° 270° (W) 14:54:01 435.225
MOZHAYETS 4 11 Dec 14:57:00 15:00:30 21° 93° (E) 15:04:00
AUBIESAT-1 11 Dec 15:01:38 15:06:06 57° 105° (ESE) 15:10:18 437.475
AIST 2 11 Dec 15:03:00 15:07:09 51° 53° (NE) 15:11:16 435.215
TISAT 1 11 Dec 15:06:34 15:08:59 15° 297° (WNW) 15:11:22 437.305
BRITE-PL 11 Dec 15:15:56 15:18:43 16° 61° (ENE) 15:21:37 437.365/2234.400
ITUPSAT 1 11 Dec 15:16:17 15:21:01 66° 287° (WNW) 15:25:43 437.325
M-CUBED/EXP-1 PRIME 11 Dec 15:19:09 15:23:48 77° 289° (WNW) 15:28:09 437.505
AO-7 11 Dec 15:23:47 15:31:53 57° 257° (WSW) 15:40:06 29.400- 29.500
ISS 11 Dec 15:38:17 15:41:18 32° 338° (NNW) 15:44:19 145.825
Cubesat XI-IV 11 Dec 15:52:59 15:54:36 11° 56° (NE) 15:56:13 437.490
GOMX 1 11 Dec 15:57:37 16:01:01 19° 62° (ENE) 16:04:33 467.674
STARS 11 Dec 16:07:55 16:11:21 22° 94° (E) 16:14:44 437.465
RS-15 11 Dec 16:13:41 16:25:53 69° 244° (WSW) 16:37:40 29.354- 29.394
KKS-1 11 Dec 16:18:31 16:22:58 61° 101° (E) 16:27:22 437.445
SWISSCUBE 11 Dec 16:20:16 16:23:02 16° 299° (WNW) 16:25:50 437.505
BEESAT 11 Dec 16:23:33 16:26:26 16° 299° (WNW) 16:29:17 436.000
NOAA 18 11 Dec 16:24:38 16:27:47 16° 57° (ENE) 16:30:57 137.9125
O/OREOS (USA 219) 11 Dec 16:28:46 16:31:36 16° 308° (NW) 16:34:26 437.305
HORYU 2 11 Dec 16:30:51 16:35:18 69° 75° (ENE) 16:39:46 437.375
MOZHAYETS 4 11 Dec 16:33:33 16:37:47 38° 290° (WNW) 16:42:00
Cosmos 2491 11 Dec 16:36:44 16:44:44 38° 71° (ENE) 16:52:42 435.465 / 435.565
AUBIESAT-1 11 Dec 16:37:04 16:40:00 17° 303° (WNW) 16:42:50 437.475
AIST 2 11 Dec 16:42:31 16:45:13 17° 250° (WSW) 16:47:56 435.215
BRITE-PL 11 Dec 16:52:15 16:56:37 58° 260° (W) 17:01:23 437.365/2234.400
CUBESAT XI-V 11 Dec 16:52:35 16:57:09 51° 99° (E) 17:01:43 437.345
M-CUBED/EXP-1 PRIME 11 Dec 16:56:28 16:57:22 10° 308° (NW) 16:58:15 437.505
CUTE-I 11 Dec 17:00:44 17:05:47 44° 69° (ENE) 17:10:51 437.470
NOAA 15 11 Dec 17:03:08 17:08:10 50° 70° (ENE) 17:13:14 137.62
HO-68 11 Dec 17:04:08 17:08:11 16° 51° (NE) 17:12:15 435.675
YUBILEINY 11 Dec 17:04:47 17:10:55 22° 79° (ENE) 17:17:05 435.215
DOVE 4 11 Dec 17:12:35 17:17:16 43° 70° (ENE) 17:22:10 437.250
ISS 11 Dec 17:16:14 17:18:31 17° 357° (N) 17:20:48 145.825
LilacSat-2 11 Dec 17:17:55 17:21:41 59° 75° (ENE) 17:25:27 437.200
Cubesat XI-IV 11 Dec 17:28:23 17:33:45 76° 74° (ENE) 17:39:08 437.490
GOMX 1 11 Dec 17:33:56 17:38:35 54° 262° (W) 17:43:36 467.674
STARS 11 Dec 17:43:44 17:47:47 36° 291° (WNW) 17:51:47 437.465
CUTE 1.7 + AOD 2 11 Dec 17:45:20 17:47:00 12° 62° (ENE) 17:48:40 437.475
CINEMA 3 11 Dec 17:46:19 17:50:23 26° 66° (ENE) 17:54:29 145.822/145.860
PCSat 11 Dec 17:56:23 18:00:34 22° 44° (NE) 18:04:45 145.827
KKS-1 11 Dec 17:56:32 17:59:01 15° 298° (WNW) 18:01:30 437.445
NOAA 18 11 Dec 18:02:09 18:07:42 84° 253° (WSW) 18:13:19 137.9125
CANX-2 11 Dec 18:02:56 18:06:08 21° 67° (ENE) 18:09:20 2200.000
Cosmos 2504 11 Dec 18:06:07 18:12:57 28° 81° (E) 18:19:58 435.465 / 435.565
STRAND 1 11 Dec 18:10:31 18:12:19 12° 88° (E) 18:14:07 437.568
HORYU 2 11 Dec 18:10:45 18:12:19 12° 270° (W) 18:13:52 437.375
COMPASS 1 11 Dec 18:15:26 18:16:49 11° 62° (ENE) 18:18:11 437.405
SEEDS 11 Dec 18:15:37 18:18:21 17° 65° (ENE) 18:21:06 437.485
RS-15 11 Dec 18:29:45 18:35:50 15° 266° (W) 18:41:51 29.354- 29.394
CUBESAT XI-V 11 Dec 18:30:58 18:34:08 18° 296° (WNW) 18:37:19 437.345
Cosmos 2491 11 Dec 18:33:30 18:41:45 49° 271° (W) 18:49:58 435.465 / 435.565
SO-50 11 Dec 18:39:04 18:43:49 69° 120° (ESE) 18:48:30 436.795
CUTE-I 11 Dec 18:41:37 18:45:59 25° 266° (W) 18:50:22 437.470
NOAA 15 11 Dec 18:44:19 18:48:12 21° 267° (W) 18:52:09 137.62
AIST 1 11 Dec 18:46:59 18:51:07 46° 93° (E) 18:55:19
HO-68 11 Dec 18:47:36 18:54:44 75° 71° (ENE) 19:01:56 435.675
DOVE 4 11 Dec 18:51:08 18:55:07 24° 268° (W) 18:59:17 437.250
ISS 11 Dec 18:53:02 18:55:50 25° 18° (NNE) 18:58:39 145.825
LilacSat-2 11 Dec 18:56:14 18:56:20 10° 271° (W) 18:56:25 437.200
YUBILEINY 11 Dec 18:57:56 19:06:38 80° 279° (W) 19:15:29 435.215
CUBEBUG 2 11 Dec 18:58:19 19:02:32 33° 69° (ENE) 19:06:42 437.445
AAUSAT CUBESAT 2 11 Dec 19:11:19 19:15:03 35° 71° (ENE) 19:18:48 437.432
Cubesat XI-IV 11 Dec 19:11:35 19:14:23 14° 271° (W) 19:17:11 437.490
CUTE 1.7 + AOD 2 11 Dec 19:18:07 19:22:17 66° 258° (WSW) 19:26:29 437.475
CINEMA 3 11 Dec 19:22:35 19:27:16 40° 263° (W) 19:32:01 145.822/145.860
UWE-3 11 Dec 19:27:11 19:31:32 42° 71° (ENE) 19:35:49 435.000/436.395/437.385
CUSAT 1 11 Dec 19:33:47 19:37:59 79° 81° (E) 19:43:33 437.405
CANX-2 11 Dec 19:37:57 19:41:47 34° 263° (W) 19:45:38 2200.000
PCSat 11 Dec 19:39:04 19:44:29 68° 243° (WSW) 19:49:50 145.827
DANDE 11 Dec 19:41:37 19:43:56 18° 76° (ENE) 19:46:37 436.750
STRAND 1 11 Dec 19:47:00 19:52:07 82° 285° (WNW) 19:57:12 437.568
COMPASS 1 11 Dec 19:47:42 19:51:47 68° 258° (WSW) 19:55:55 437.405
NOAA 18 11 Dec 19:47:46 19:49:09 11° 272° (W) 19:50:33 137.9125
SEEDS 11 Dec 19:49:47 19:53:44 42° 262° (W) 19:57:42 437.485
ZACube-1 11 Dec 19:53:47 19:58:07 48° 73° (ENE) 20:02:24 437.345
Cosmos 2504 11 Dec 19:57:02 20:05:32 68° 281° (W) 20:14:26 435.465 / 435.565
FUNcube-1 11 Dec 19:57:45 20:02:05 49° 72° (ENE) 20:06:20 145.935
PRISM 11 Dec 20:09:14 20:09:47 10° 90° (E) 20:10:19 437.425
Oscar 11 11 Dec 20:20:04 20:24:22 82° 76° (ENE) 20:28:42 145.826/435.025
SO-50 11 Dec 20:21:15 20:24:44 20° 320° (NW) 20:28:11 436.795
AIST 1 11 Dec 20:26:17 20:29:00 16° 291° (WNW) 20:31:44
HUMSAT D 11 Dec 20:26:42 20:29:37 19° 66° (ENE) 20:32:32 437.325/437.525
ISS 11 Dec 20:29:18 20:32:36 72° 217° (SW) 20:35:54 145.825
CUBEBUG 2 11 Dec 20:35:09 20:39:09 27° 265° (W) 20:43:06 437.445
HO-68 11 Dec 20:38:00 20:43:07 21° 269° (W) 20:48:17 435.675
AAUSAT CUBESAT 2 11 Dec 20:47:39 20:50:37 19° 267° (W) 20:53:35 437.432
DELFI C3 11 Dec 20:48:46 20:52:38 59° 74° (ENE) 20:56:30 145.870
YUBILEINY 11 Dec 20:59:39 21:05:01 17° 301° (WNW) 21:10:27 435.215
PHONESAT 2.4 11 Dec 21:01:23 21:02:05 11° 152° (SSE) 21:02:46 2401.200-2431.200
UWE-3 11 Dec 21:04:42 21:08:07 20° 267° (W) 21:11:30 435.000/436.395/437.385
CUSAT 1 11 Dec 21:18:59 21:19:42 10° 270° (W) 21:20:27 437.405
DANDE 11 Dec 21:23:56 21:26:31 21° 263° (W) 21:29:35 436.750
TIGRISAT 11 Dec 21:28:31 21:31:28 18° 92° (E) 21:34:23 435.000
STRAND 1 11 Dec 21:28:51 21:30:28 11° 303° (WNW) 21:32:05 437.568
ANTELSAT 11 Dec 21:31:29 21:34:44 20° 93° (E) 21:37:55 437.575/2403.000
ZACube-1 11 Dec 21:31:45 21:34:39 17° 268° (W) 21:37:30 437.345
FUNcube-1 11 Dec 21:35:44 21:38:33 16° 268° (W) 21:41:20 145.935
CUBEBUG 1 11 Dec 21:38:21 21:39:30 11° 60° (ENE) 21:40:40 437.445
PRISM 11 Dec 21:41:21 21:45:30 69° 287° (WNW) 21:49:39 437.425
ESTCUBE 1 11 Dec 21:47:51 21:51:19 22° 66° (ENE) 21:54:48 437.505/2401.250
Cosmos 2504 11 Dec 21:56:10 22:00:50 15° 304° (NW) 22:05:35 435.465 / 435.565
HUMSAT D 11 Dec 22:01:04 22:04:58 38° 262° (W) 22:08:52 437.325/437.525
VELOX 1 11 Dec 22:04:37 22:07:00 14° 62° (ENE) 22:09:25 145.980
DELFI C3 11 Dec 22:27:02 22:27:49 10° 271° (W) 22:28:36 145.870
PHONESAT 2.4 11 Dec 22:34:17 22:36:45 35° 167° (SSE) 22:39:13 2401.200-2431.200
UNISAT 6 11 Dec 22:36:08 22:40:30 77° 285° (WNW) 22:44:46 437.425
POPSAT HIP 1 11 Dec 22:37:42 22:38:40 11° 89° (E) 22:39:38 437.405
Cosmos 2499 11 Dec 22:39:32 22:46:04 24° 79° (E) 22:52:40 435.465 / 435.565
AISAT 11 Dec 23:02:08 23:06:29 57° 73° (ENE) 23:10:52 437.250
50 SAT 11 Dec 23:02:35 23:05:52 39° 72° (ENE) 23:09:10 437.505
TIGRISAT 11 Dec 23:04:17 23:08:22 41° 289° (WNW) 23:12:22 435.000
ANTELSAT 11 Dec 23:07:35 23:11:33 36° 290° (WNW) 23:15:28 437.575/2403.000
CUBEBUG 1 11 Dec 23:10:43 23:15:06 82° 259° (W) 23:19:31 437.445
O/OREOS (USA 219) 11 Dec 23:18:23 23:21:12 16° 52° (NE) 23:23:59 437.305
JAS-2 11 Dec 23:21:04 23:26:15 55° 101° (E) 23:31:48 435.910
SPROUT 11 Dec 23:23:00 23:27:14 59° 73° (ENE) 23:31:30 437.525
ESTCUBE 1 11 Dec 23:23:46 23:27:55 37° 263° (W) 23:32:05 437.505/2401.250
UKube-1 11 Dec 23:24:28 23:28:26 37° 70° (ENE) 23:32:27 .
NANOSAT C BR1 11 Dec 23:25:07 23:29:00 35° 97° (E) 23:32:50 145.865
DX 1 11 Dec 23:30:02 23:34:18 58° 73° (ENE) 23:38:37 434.975-435.025
GONETS M04 11 Dec 23:37:03 23:45:16 49° 89° (E) 23:53:28
QB50P2 11 Dec 23:37:16 23:41:27 56° 100° (E) 23:45:35 145.880/145.840
POLYITAN 1 11 Dec 23:37:38 23:41:47 53° 100° (E) 23:45:52 437.675
VELOX 1 11 Dec 23:38:35 23:42:57 61° 259° (W) 23:47:23 145.980
DUCHIFAT 1 11 Dec 23:43:41 23:47:49 52° 100° (E) 23:51:53 145.980
QB50P1 11 Dec 23:48:26 23:52:40 70° 102° (ESE) 23:56:51 145.935-145.965
PHONESAT 2.4 12 Dec 00:09:06 00:11:42 51° 182° (S) 00:14:15 2401.200-2431.200
POPSAT HIP 1 12 Dec 00:10:41 00:14:54 67° 285° (WNW) 00:19:03 437.405
BUGSAT 1 12 Dec 00:13:51 00:17:49 42° 99° (E) 00:21:42 437.445
SWISSCUBE 12 Dec 00:15:30 00:15:46 10° 57° (ENE) 00:16:01 437.505
AUBIESAT-1 12 Dec 00:17:23 00:17:56 10° 52° (NE) 00:18:30 437.475
TISAT 1 12 Dec 00:21:36 00:25:37 42° 71° (ENE) 00:29:39 437.305
AO-85 12 Dec 00:22:21 00:27:11 58° 120° (ESE) 00:31:40 145.980
Cosmos 2499 12 Dec 00:29:29 00:38:12 77° 279° (W) 00:47:10 435.465 / 435.565
M-CUBED/EXP-1 PRIME 12 Dec 00:32:40 00:35:35 18° 57° (ENE) 00:38:36 437.505
Oscar 19 12 Dec 00:33:04 00:36:37 18° 92° (E) 00:40:09 437.125/150
50 SAT 12 Dec 00:37:51 00:39:20 12° 268° (W) 00:40:50 437.505
AISAT 12 Dec 00:41:00 00:43:18 14° 269° (W) 00:45:37 437.250
ITUPSAT 1 12 Dec 00:47:34 00:50:52 19° 63° (ENE) 00:54:10 437.325
O/OREOS (USA 219) 12 Dec 00:56:36 01:01:01 60° 251° (WSW) 01:05:24 437.305
NANOSAT C BR1 12 Dec 01:01:20 01:04:30 21° 294° (WNW) 01:07:39 145.865
UKube-1 12 Dec 01:01:24 01:04:36 20° 266° (W) 01:07:49 .
SPROUT 12 Dec 01:01:37 01:03:31 13° 270° (W) 01:05:27 437.525
JAS-2 12 Dec 01:07:18 01:11:02 20° 297° (WNW) 01:14:54 435.910
DX 1 12 Dec 01:08:44 01:10:51 13° 269° (W) 01:12:58 434.975-435.025
QB50P2 12 Dec 01:14:32 01:16:47 14° 297° (WNW) 01:19:01 145.880/145.840
POLYITAN 1 12 Dec 01:14:45 01:17:08 15° 297° (WNW) 01:19:30 437.675
DUCHIFAT 1 12 Dec 01:20:41 01:23:03 15° 297° (WNW) 01:25:26 145.980
Gurwin Techsat 1B 12 Dec 01:21:19 01:25:46 27° 95° (E) 01:30:12 435.225
QB50P1 12 Dec 01:26:20 01:27:51 12° 299° (WNW) 01:29:21 145.935-145.965
SO-50 12 Dec 01:30:52 01:33:07 13° 34° (NE) 01:35:22 436.795
GONETS M04 12 Dec 01:34:18 01:42:14 38° 289° (WNW) 01:50:14
PHONESAT 2.4 12 Dec 01:44:21 01:46:33 23° 199° (SSW) 01:48:44 2401.200-2431.200
AUBIESAT-1 12 Dec 01:47:10 01:51:28 77° 70° (ENE) 01:56:02 437.475
SWISSCUBE 12 Dec 01:47:58 01:52:44 80° 74° (ENE) 01:57:30 437.505
BUGSAT 1 12 Dec 01:50:05 01:52:51 17° 296° (WNW) 01:55:35 437.445
BEESAT 12 Dec 01:51:16 01:56:02 78° 74° (ENE) 02:00:49 436.000
TISAT 1 12 Dec 01:58:39 02:01:27 17° 268° (W) 02:04:16 437.305
MOZHAYETS 4 12 Dec 01:59:39 02:03:14 23° 66° (ENE) 02:06:51
AO-85 12 Dec 02:04:15 02:07:54 21° 316° (NW) 02:11:22 145.980
M-CUBED/EXP-1 PRIME 12 Dec 02:05:21 02:09:33 56° 255° (WSW) 02:14:03 437.505
Oscar 19 12 Dec 02:11:11 02:16:17 57° 288° (WNW) 02:21:22 437.125/150
ITUPSAT 1 12 Dec 02:23:39 02:28:18 52° 260° (W) 02:32:58 437.325
Cosmos 2499 12 Dec 02:27:24 02:32:56 18° 301° (WNW) 02:38:32 435.465 / 435.565
BEESAT 3 12 Dec 02:29:46 02:32:16 17° 111° (ESE) 02:34:47 437.485
ITAMSAT 1 12 Dec 02:54:11 02:59:07 42° 99° (E) 03:04:00 435.822/435.867
Gurwin Techsat 1B 12 Dec 03:00:52 03:05:49 40° 291° (WNW) 03:10:45 435.225
STARS 12 Dec 03:05:16 03:08:42 22° 65° (ENE) 03:12:09 437.465
SO-50 12 Dec 03:09:53 03:14:25 73° 54° (NE) 03:18:53 436.795
BEESAT 2 12 Dec 03:12:46 03:15:49 22° 113° (ESE) 03:18:54 435.950
YUBILEINY 12 Dec 03:14:35 03:16:38 11° 52° (NE) 03:18:41 435.215
KKS-1 12 Dec 03:16:54 03:21:18 61° 73° (ENE) 03:25:45 437.445
AO-7 12 Dec 03:24:16 03:32:19 49° 101° (E) 03:40:20 29.400- 29.500
AUBIESAT-1 12 Dec 03:25:16 03:26:26 11° 267° (W) 03:27:37 437.475
SWISSCUBE 12 Dec 03:29:49 03:31:05 11° 271° (W) 03:32:21 437.505
BEESAT 12 Dec 03:32:49 03:34:21 11° 271° (W) 03:35:54 436.000
MOZHAYETS 4 12 Dec 03:35:58 03:40:11 37° 262° (W) 03:44:27
CUBESAT XI-V 12 Dec 03:56:23 04:00:51 53° 73° (ENE) 04:05:20 437.345
BEESAT 3 12 Dec 04:05:47 04:09:32 45° 308° (NW) 04:13:21 437.485
HORYU 2 12 Dec 04:23:04 04:24:46 12° 90° (E) 04:26:27 437.375
